Weather History for Naples, Italy

Change the Weather History Date:

Tuesday, February 5, 2013

  Actual Average Record
Temperature  
Mean Temperature 45 °F -  
Max Temperature 55 °F 56 °F 60 °F (2001)
Min Temperature 35 °F 40 °F 33 °F (2005)
Degree Days  
Heating Degree Days 20    
Moisture  
Dew Point 40 °F    
Average Humidity 75    
Maximum Humidity 94    
Minimum Humidity 54    
Precipitation  
Precipitation 0.00 in 0.13 in - ()
Sea Level Pressure  
Sea Level Pressure 29.99 in    
Wind  
Wind Speed 4 mph ()    
Max Wind Speed 12 mph    
Max Gust Speed -    
Visibility 5.6 miles    
Events Rain    
Averages and records for this station are not official NWS values.
T = Trace of Precipitation, MM = Missing Value Source: Averaged Metar Reports

Daily Weather History Graph

Daily Weather History Graph

Search for Another Location

Airport:

Trip Planner

Search our weather history database for the weather conditions in past years. The results will help you decide how hot, cold, wet, or windy it might be!

Date:

Astronomy

Feb. 05, 2013 Rise Set
Actual Time 7:09 AM CET 5:25 PM CET
Civil Twilight 6:40 AM CET 5:53 PM CET
Nautical Twilight 6:07 AM CET 6:26 PM CET
Astronomical Twilight 5:35 AM CET 6:58 PM CET
Moon 2:32 AM CET (2/5) 12:25 PM CET (2/5)
Length of Visible Light 11h 13m
Length of Day
10h 16m
Waning Crescent, 29% of the Moon is Illuminated
Feb 5
Waning Crescent
Feb 10
New
Feb 17
First Quarter
Feb 25
Full
Mar 4
Last Quarter

Hourly Weather History & Observations

Time (CET) Temp. Windchill Dew Point Humidity Pressure Visibility Wind Dir Wind Speed Gust Speed Precip Events Conditions
12:20 AM 39.2 °F - 35.6 °F 87% 30.12 in 5.0 mi Variable 2.3 mph - N/A   Unknown
12:50 AM 37.4 °F - 33.8 °F 87% 30.12 in 5.0 mi NNW 2.3 mph - N/A   Unknown
1:20 AM 39.2 °F 37.0 °F 33.8 °F 81% 30.12 in - NE 3.5 mph - N/A   Clear
1:50 AM 39.2 °F - 32.0 °F 75% 30.09 in - Variable 2.3 mph - N/A   Clear
2:20 AM 37.4 °F 34.9 °F 32.0 °F 81% 30.09 in - NNW 3.5 mph - N/A   Clear
2:50 AM 39.2 °F 37.0 °F 33.8 °F 81% 30.09 in - West 3.5 mph - N/A   Clear
3:20 AM 35.6 °F - 32.0 °F 87% 30.09 in - North 2.3 mph - N/A   Clear
3:50 AM 35.6 °F 32.8 °F 32.0 °F 87% 30.09 in - NNW 3.5 mph - N/A   Clear
4:20 AM 37.4 °F 34.9 °F 33.8 °F 87% 30.09 in - NNW 3.5 mph - N/A   Clear
4:50 AM 37.4 °F - 32.0 °F 81% 30.09 in - Variable 2.3 mph - N/A   Clear
5:20 AM 35.6 °F 32.8 °F 30.2 °F 81% 30.06 in - NNE 3.5 mph - N/A   Clear
5:50 AM 37.4 °F 34.9 °F 30.2 °F 75% 30.06 in - NNW 3.5 mph - N/A   Clear
6:20 AM 35.6 °F 32.8 °F 28.4 °F 75% 30.06 in - NNW 3.5 mph - N/A   Clear
6:50 AM 39.2 °F 37.0 °F 32.0 °F 75% 30.06 in - NNE 3.5 mph - N/A   Clear
7:20 AM 35.6 °F - 30.2 °F 81% 30.06 in - Variable 2.3 mph - N/A   Clear
7:50 AM 37.4 °F - 32.0 °F 81% 30.06 in - North 2.3 mph - N/A   Clear
8:20 AM 39.2 °F - 32.0 °F 75% 30.06 in - NNW 2.3 mph - N/A   Clear
8:50 AM 42.8 °F - 35.6 °F 76% 30.06 in - North 1.2 mph - N/A   Clear
9:20 AM 48.2 °F - 32.0 °F 54% 30.06 in - Calm Calm - N/A   Clear
9:50 AM 50.0 °F - 35.6 °F 58% 30.06 in - Variable 2.3 mph - N/A   Clear
10:20 AM 51.8 °F - 37.4 °F 58% 30.06 in - Variable 2.3 mph - N/A   Clear
10:50 AM 53.6 °F - 39.2 °F 58% 30.06 in - South 4.6 mph - N/A   Clear
11:20 AM 53.6 °F - 41.0 °F 62% 30.04 in - South 5.8 mph - N/A   Clear
11:50 AM 53.6 °F - 41.0 °F 62% 30.04 in 6.2 mi South 6.9 mph - N/A   Partly Cloudy
12:20 PM 55.4 °F - 42.8 °F 63% 30.04 in 6.2 mi South 6.9 mph - N/A   Mostly Cloudy
12:50 PM 53.6 °F - 42.8 °F 67% 30.01 in 6.2 mi SSW 6.9 mph - N/A   Mostly Cloudy
1:20 PM 53.6 °F - 42.8 °F 67% 30.01 in 6.2 mi South 9.2 mph - N/A   Mostly Cloudy
1:50 PM 53.6 °F - 44.6 °F 72% 29.98 in 6.2 mi South 8.1 mph - N/A   Mostly Cloudy
2:20 PM 53.6 °F - 44.6 °F 72% 29.98 in 6.2 mi South 8.1 mph - N/A   Mostly Cloudy
2:50 PM 55.4 °F - 44.6 °F 67% 29.95 in 6.2 mi SSW 8.1 mph - N/A   Scattered Clouds
3:20 PM 55.4 °F - 44.6 °F 67% 29.95 in 6.2 mi SSW 9.2 mph - N/A   Scattered Clouds
3:50 PM 53.6 °F - 44.6 °F 72% 29.95 in 6.2 mi SW 6.9 mph - N/A   Scattered Clouds
4:20 PM 53.6 °F - 44.6 °F 72% 29.95 in 6.2 mi SW 9.2 mph - N/A   Scattered Clouds
4:50 PM 53.6 °F - 42.8 °F 67% 29.92 in 6.2 mi SW 9.2 mph - N/A   Scattered Clouds
5:20 PM 53.6 °F - 42.8 °F 67% 29.92 in 6.2 mi SSW 8.1 mph - N/A   Mostly Cloudy
5:50 PM 53.6 °F - 41.0 °F 62% 29.92 in 6.2 mi SSW 8.1 mph - N/A   Mostly Cloudy
6:20 PM 53.6 °F - 42.8 °F 67% 29.92 in 6.2 mi SSW 9.2 mph - N/A   Mostly Cloudy
6:50 PM 53.6 °F - 42.8 °F 67% 29.89 in 6.2 mi SSW 10.4 mph - N/A   Mostly Cloudy
7:20 PM 53.6 °F - 44.6 °F 72% 29.89 in 6.2 mi SSW 11.5 mph - N/A   Mostly Cloudy
7:50 PM 53.6 °F - 46.4 °F 77% 29.89 in 6.2 mi SSW 9.2 mph - N/A   Mostly Cloudy
8:20 PM 53.6 °F - 48.2 °F 82% 29.86 in 6.2 mi SW 9.2 mph - N/A   Mostly Cloudy
8:50 PM 55.4 °F - 51.8 °F 88% 29.86 in 5.0 mi SW 9.2 mph - N/A   Drizzle
9:20 PM 55.4 °F - 51.8 °F 88% 29.86 in 5.0 mi SSW 10.4 mph - N/A   Drizzle
9:50 PM 55.4 °F - 51.8 °F 88% 29.83 in 3.1 mi SW 9.2 mph - N/A Rain Rain
10:20 PM 53.6 °F - 51.8 °F 94% 29.83 in 4.3 mi SSW 5.8 mph - N/A Rain Light Rain
10:50 PM 53.6 °F - 51.8 °F 94% 29.80 in 3.7 mi SSW 6.9 mph - N/A   Drizzle
11:20 PM 53.6 °F - 51.8 °F 94% 29.80 in 3.7 mi SSW 4.6 mph - N/A   Drizzle
11:50 PM 53.6 °F - 50.0 °F 88% 29.80 in 5.0 mi WSW 5.8 mph - N/A   Mostly Cloudy